Location: Izdebno
(52.6670°N, 16.2170°E)
Time: 14:16:02
(UTC+02:00)

A-11 Canister half - Pass Details

Date: 27 February 2024
Orbit: 1525 x 1683 km, 47.3° (Epoch: 24 April)

Event Time Altitude Azimuth Distance (km) Brightness Sun altitude
Rises 18:36:01 0° 191° (SSW) 4,789 11.7 -10.9°
Reaches altitude 10° 18:40:07 10° 177° (S) 3,780 11.0 -11.5°
Maximum altitude 18:46:39 21° 133° (SE) 2,961 10.1 -12.5°
Enters shadow 18:50:44 16° 102° (ESE) 3,285 10.1 -13.1°
